Regional Weather Roundup
Issued by NWS

Home | Current Version | Previous Version | Graphics & Text | Print | Product List | Glossary On
Versions: 1 2 3 4 5 6 7 8 9 10 11 12 13 14 15 16 17 18 19 20 21 22 23 24 25 26 27 28 29 30 31 32 33 34 35 36 37 38 39 40 41 42 43 44 45 46 47 48 49 50
000
ASUS43 KOAX 081710
RWRNE

WEATHER ROUNDUP FOR NEBRASKA
NATIONAL WEATHER SERVICE OMAHA NE
1100 AM CST THU DEC 08 2016

NOTES: SATELLITE DATA IS BEING USED TO AUGMENT CLOUD COVER ABOVE
       12000 FEET.
       "FAIR" INDICATES FEW OR NO CLOUDS BELOW 12,000 FEET WITH NO
       SIGNIFICANT WEATHER AND/OR OBSTRUCTIONS TO VISIBILITY.

  * THESE STATIONS DO NOT REPORT WEATHER SUCH AS RAIN...SNOW OR FOG.

NEZ001>004-019>022-054>056-081800-
NEBRASKA PANHANDLE

CITY           SKY/WX    TMP DP  RH WIND       PRES   REMARKS
SCOTTSBLUFF    SUNNY      4  -4  69 W5        30.54S WCI  -5
ALLIANCE       SUNNY      5  -4  66 W6        30.53S WCI  -6
CHADRON        SUNNY      8  -4  58 W8        30.59S WCI  -4
KIMBALL        SUNNY      5   0  80 CALM      30.46S
SIDNEY         SUNNY      5  -4  66 NW6       30.52R WCI  -6
$$

NEZ057>060-069>072-079>082-081800-
SOUTHWEST NEBRASKA

CITY           SKY/WX    TMP DP  RH WIND       PRES   REMARKS
NORTH PLATTE   SUNNY     15   2  56 N14       30.62F WCI   0
IMPERIAL       SUNNY      8  -3  61 NW8       30.62R WCI  -4
LEXINGTON      SUNNY     16   3  55 NW13      30.64S WCI   2
MCCOOK         SUNNY      7  -2  66 W12       30.68R WCI  -8
OGALLALA       SUNNY     10   2  69 NW8       30.61R WCI  -2
$$

NEZ005>010-023>029-035>040-094-081800-
NORTH CENTRAL NEBRASKA

CITY           SKY/WX    TMP DP  RH WIND       PRES   REMARKS
VALENTINE      SUNNY      9  -5  53 NW16      30.63R WCI  -8
AINSWORTH      SUNNY     10  -1  60 NW18      30.61S WCI  -8
BROKEN BOW     SUNNY     14   0  53 NW16      30.61R WCI  -2
O`NEILL        SUNNY     13   2  60 NW20      30.62S WCI  -4
ORD            SUNNY     15   0  51 NW20      30.63S WCI  -2
THEDFORD       SUNNY     13   1  60 NW15      30.61S WCI  -3
$$

NEZ041-046>049-061>064-073>077-083>087-081800-
SOUTH CENTRAL NEBRASKA

CITY           SKY/WX    TMP DP  RH WIND       PRES   REMARKS
GRAND ISLAND   SUNNY     16   3  56 NW17G26   30.65S WCI   0
AURORA         SUNNY     17   4  56 NW20      30.64S WCI   0
HASTINGS       SUNNY     17   3  54 NW17G24   30.65S WCI   1
HEBRON         SUNNY     17   6  60 N14G20    30.67S WCI   3
HOLDREGE       SUNNY     15   3  59 N16G22    30.63S WCI   0
KEARNEY *      SUNNY     16   1  53 NW14      30.65S WCI   1
YORK           SUNNY     18   5  57 NW18G25   30.64S WCI   2
$$

NEZ011>018-030>034-042>045-081800-
NORTHEAST NEBRASKA

CITY           SKY/WX    TMP DP  RH WIND       PRES   REMARKS
NORFOLK        SUNNY     15   3  59 NW22G30   30.60R WCI  -3
ALBION         SUNNY     15   2  57 NW18      30.62S WCI  -2
BLAIR          MOSUNNY   16   8  68 NW21G26   30.60R WCI  -1
FREMONT        PTSUNNY   17   7  66 NW22      30.63S WCI  -1
TEKAMAH        SUNNY     18   7  62 NW21      30.63R WCI   1
WAYNE          MOSUNNY   15   6  66 NW20G29   30.61R WCI  -2
$$

NEZ050>053-065>068-078-088>093-081800-
SOUTHEAST NEBRASKA

CITY           SKY/WX    TMP DP  RH WIND       PRES   REMARKS
LINCOLN        SUNNY     18   5  57 NW15      30.66S WCI   4
OMAHA EPPLEY   MOSUNNY   19   6  57 NW16      30.63R WCI   4
BEATRICE       SUNNY     19   6  58 NW16      30.66S WCI   4
FALLS CITY     SUNNY     19   6  57 NW15      30.65R WCI   5
NEBRASKA CITY  SUNNY     18   3  51 NW20G26   30.62F WCI   2
PLATTSMOUTH    SUNNY     18   4  54 NW15G22   30.62S WCI   3
$$

NEZ044-045-051>053-067-081800-
OMAHA AREA

CITY           SKY/WX    TMP DP  RH WIND       PRES   REMARKS
OMAHA EPPLEY   MOSUNNY   19   6  57 NW16      30.63R WCI   4
BLAIR          MOSUNNY   16   8  68 NW21G26   30.60R WCI  -1
FREMONT        PTSUNNY   17   7  66 NW22      30.63S WCI  -1
MILLARD        MOSUNNY   18   6  60 NW16G23   30.64R WCI   3
OFFUTT AFB     SUNNY     18   6  58 NW14      30.63R WCI   4
PLATTSMOUTH    SUNNY     18   4  54 NW15G22   30.62S WCI   3
WAHOO          FAIR      18   6  59 NW18      30.63S WCI   3
$$




USA.gov is the U.S. government's official web portal to all federal, state and local government web resources and services.